| time (UTC) | temp F | wind direction | speed MPH | gust MPH | rain 1hr in | rain 24hr in | rain mn in | humidity % | barometer mb |
| 20260504050533 | 52 | 63 | 7.0 | 14.0 | 0.00 | 0.00 | 0.00 | 58 | 1018.1 |
| 20260504045531 | 53 | 44 | 5.0 | 13.0 | 0.00 | 0.00 | 0.00 | 58 | 1018.0 |
| 20260504045031 | 53 | 352 | 6.0 | 13.0 | 0.00 | 0.00 | 0.00 | 58 | 1018.1 |
| 20260504044546 | 53 | 23 | 5.0 | 13.0 | 0.00 | 0.00 | 0.00 | 58 | 1018.0 |
| 20260504044031 | 53 | 34 | 4.0 | 12.0 | 0.00 | 0.00 | 0.00 | 59 | 1017.8 |
| 20260504043535 | 52 | 40 | 5.0 | 12.0 | 0.00 | 0.00 | 0.00 | 60 | 1017.9 |
| 20260504043045 | 52 | 24 | 6.0 | 13.0 | 0.00 | 0.00 | 0.00 | 61 | 1017.8 |
| 20260504042532 | 52 | 23 | 6.0 | 13.0 | 0.00 | 0.00 | 0.00 | 59 | 1017.8 |
| 20260504042033 | 52 | 40 | 5.0 | 14.0 | 0.00 | 0.00 | 0.00 | 60 | 1017.7 |
| 20260504041544 | 52 | 53 | 5.0 | 14.0 | 0.00 | 0.00 | 0.00 | 61 | 1017.8 |
| 20260504041032 | 52 | 17 | 6.0 | 18.0 | 0.00 | 0.00 | 0.00 | 61 | 1017.7 |
| 20260504040530 | 51 | 62 | 7.0 | 18.0 | 0.00 | 0.00 | 0.00 | 61 | 1017.7 |
| 20260504040043 | 51 | 13 | 7.0 | 15.0 | 0.00 | 0.00 | 0.00 | 62 | 1017.7 |
| 20260504035532 | 51 | 65 | 7.0 | 15.0 | 0.00 | 0.00 | 0.00 | 61 | 1017.5 |
| 20260504035033 | 51 | 37 | 8.0 | 16.0 | 0.00 | 0.00 | 0.00 | 61 | 1017.5 |
| 20260504034552 | 51 | 344 | 7.0 | 16.0 | 0.00 | 0.00 | 0.00 | 61 | 1017.5 |
| 20260504034035 | 51 | 24 | 7.0 | 14.0 | 0.00 | 0.00 | 0.00 | 62 | 1017.4 |
| 20260504033530 | 51 | 9 | 5.0 | 14.0 | 0.00 | 0.00 | 0.00 | 63 | 1017.5 |
| 20260504033050 | 51 | 38 | 5.0 | 16.0 | 0.00 | 0.00 | 0.00 | 63 | 1017.4 |
| 20260504032530 | 51 | 31 | 5.0 | 16.0 | 0.00 | 0.00 | 0.00 | 63 | 1017.4 |
| 20260504032034 | 51 | 360 | 6.0 | 16.0 | 0.00 | 0.00 | 0.00 | 62 | 1017.4 |
| 20260504031600 | 51 | 11 | 5.0 | 14.0 | 0.00 | 0.00 | 0.00 | 64 | 1017.4 |
| 20260504031030 | 51 | 61 | 6.0 | 14.0 | 0.00 | 0.00 | 0.00 | 64 | 1017.2 |
| 20260504030530 | 51 | 30 | 7.0 | 14.0 | 0.00 | 0.00 | 0.00 | 64 | 1017.0 |
| 20260504030108 | 51 | 56 | 5.0 | 14.0 | 0.00 | 0.00 | 0.00 | 65 | 1017.1 |
| 20260504025531 | 51 | 32 | 8.0 | 14.0 | 0.00 | 0.01 | 0.00 | 66 | 1017.0 |
| 20260504025031 | 51 | 69 | 7.0 | 14.0 | 0.00 | 0.01 | 0.00 | 67 | 1017.0 |
| 20260504024546 | 51 | 57 | 5.0 | 18.0 | 0.00 | 0.01 | 0.00 | 67 | 1017.0 |
| 20260504024031 | 51 | 28 | 6.0 | 18.0 | 0.00 | 0.01 | 0.00 | 68 | 1017.0 |
| 20260504023530 | 51 | 15 | 5.0 | 12.0 | 0.00 | 0.01 | 0.00 | 69 | 1017.0 |
| 20260504023043 | 50 | 9 | 5.0 | 14.0 | 0.00 | 0.01 | 0.00 | 67 | 1016.9 |
| 20260504022532 | 50 | 38 | 7.0 | 15.0 | 0.00 | 0.01 | 0.00 | 67 | 1016.8 |
| 20260504022030 | 50 | 18 | 7.0 | 16.0 | 0.00 | 0.01 | 0.00 | 67 | 1017.0 |
| 20260504021543 | 50 | 27 | 7.0 | 16.0 | 0.00 | 0.01 | 0.00 | 66 | 1017.0 |
| 20260504021033 | 50 | 58 | 8.0 | 16.0 | 0.00 | 0.01 | 0.00 | 66 | 1016.9 |
| 20260504020530 | 50 | 41 | 9.0 | 18.0 | 0.00 | 0.01 | 0.00 | 67 | 1016.9 |
| 20260504020039 | 50 | 44 | 8.0 | 18.0 | 0.00 | 0.01 | 0.00 | 66 | 1016.8 |
| 20260504015530 | 50 | 5 | 8.0 | 18.0 | 0.00 | 0.01 | 0.00 | 66 | 1017.0 |
| 20260504015035 | 50 | 39 | 7.0 | 17.0 | 0.00 | 0.01 | 0.00 | 67 | 1016.9 |
| 20260504014546 | 50 | 40 | 7.0 | 14.0 | 0.00 | 0.01 | 0.00 | 68 | 1017.0 |
| 20260504014032 | 50 | 59 | 8.0 | 14.0 | 0.00 | 0.01 | 0.00 | 68 | 1017.1 |
| 20260504013529 | 50 | 40 | 5.0 | 14.0 | 0.00 | 0.01 | 0.00 | 69 | 1017.2 |
| 20260504013045 | 50 | 40 | 6.0 | 14.0 | 0.00 | 0.01 | 0.00 | 69 | 1017.1 |
| 20260504012533 | 50 | 24 | 7.0 | 14.0 | 0.00 | 0.01 | 0.00 | 69 | 1017.2 |
| 20260504012032 | 50 | 15 | 8.0 | 14.0 | 0.00 | 0.01 | 0.00 | 68 | 1017.2 |
| 20260504011545 | 50 | 5 | 9.0 | 19.0 | 0.00 | 0.01 | 0.00 | 67 | 1017.1 |
| 20260504011034 | 50 | 348 | 10.0 | 19.0 | 0.00 | 0.01 | 0.00 | 66 | 1017.0 |
| 20260504010533 | 50 | 19 | 10.0 | 19.0 | 0.00 | 0.01 | 0.00 | 66 | 1017.0 |
| 20260504010044 | 50 | 39 | 9.0 | 16.0 | 0.00 | 0.01 | 0.00 | 67 | 1017.1 |
| 20260504005532 | 50 | 20 | 9.0 | 15.0 | 0.00 | 0.01 | 0.00 | 66 | 1017.0 |
| 20260504005034 | 50 | 21 | 6.0 | 15.0 | 0.00 | 0.01 | 0.00 | 65 | 1016.9 |
| 20260504004542 | 50 | 5 | 7.0 | 17.0 | 0.00 | 0.01 | 0.00 | 64 | 1017.0 |
| 20260504004033 | 50 | 14 | 7.0 | 17.0 | 0.00 | 0.01 | 0.00 | 64 | 1017.0 |
| 20260504003530 | 50 | 12 | 7.0 | 17.0 | 0.00 | 0.01 | 0.00 | 63 | 1017.0 |
| 20260504003043 | 50 | 55 | 7.0 | 25.0 | 0.00 | 0.01 | 0.00 | 63 | 1017.1 |
| 20260504002532 | 50 | 5 | 9.0 | 25.0 | 0.00 | 0.01 | 0.00 | 61 | 1017.1 |
| 20260504002032 | 50 | 67 | 7.0 | 17.0 | 0.00 | 0.01 | 0.00 | 61 | 1017.1 |
| 20260504001550 | 50 | 43 | 7.0 | 19.0 | 0.00 | 0.01 | 0.00 | 62 | 1017.1 |
| 20260504001031 | 50 | 55 | 7.0 | 19.0 | 0.00 | 0.01 | 0.00 | 62 | 1017.2 |
| 20260504000530 | 50 | 46 | 7.0 | 21.0 | 0.00 | 0.01 | 0.00 | 62 | 1017.1 |
| 20260504000106 | 50 | 22 | 10.0 | 21.0 | 0.00 | 0.01 | 0.00 | 62 | 1017.1 |
| 20260503235532 | 50 | 15 | 11.0 | 20.0 | 0.00 | 0.01 | 0.00 | 63 | 1017.3 |
| 20260503235032 | 50 | 59 | 12.0 | 20.0 | 0.00 | 0.01 | 0.00 | 64 | 1017.3 |
| 20260503234544 | 50 | 326 | 10.0 | 20.0 | 0.00 | 0.01 | 0.00 | 64 | 1017.4 |
| 20260503234031 | 50 | 5 | 10.0 | 20.0 | 0.00 | 0.01 | 0.00 | 64 | 1017.4 |
| 20260503233534 | 50 | 5 | 12.0 | 20.0 | 0.00 | 0.01 | 0.00 | 64 | 1017.5 |
| 20260503233043 | 50 | 32 | 7.0 | 20.0 | 0.00 | 0.01 | 0.00 | 65 | 1017.4 |
| 20260503232533 | 50 | 311 | 9.0 | 20.0 | 0.00 | 0.01 | 0.00 | 64 | 1017.6 |
| 20260503232032 | 50 | 46 | 8.0 | 20.0 | 0.00 | 0.01 | 0.00 | 64 | 1017.6 |
| 20260503231546 | 50 | 5 | 7.0 | 18.0 | 0.00 | 0.01 | 0.00 | 66 | 1017.6 |
| 20260503231031 | 49 | 22 | 10.0 | 18.0 | 0.00 | 0.01 | 0.00 | 64 | 1017.6 |
| 20260503230535 | 49 | 5 | 7.0 | 17.0 | 0.00 | 0.01 | 0.00 | 63 | 1017.7 |
| 20260503230048 | 49 | 332 | 9.0 | 17.0 | 0.00 | 0.01 | 0.00 | 62 | 1017.7 |
| 20260503225530 | 49 | 16 | 8.0 | 17.0 | 0.00 | 0.01 | 0.00 | 62 | 1017.7 |
| 20260503225030 | 49 | 39 | 8.0 | 17.0 | 0.00 | 0.01 | 0.00 | 61 | 1017.7 |
| 20260503224545 | 49 | 350 | 9.0 | 14.0 | 0.00 | 0.01 | 0.00 | 61 | 1017.5 |
| 20260503224034 | 49 | 9 | 8.0 | 16.0 | 0.00 | 0.01 | 0.00 | 62 | 1017.5 |
| 20260503223530 | 49 | 5 | 8.0 | 17.0 | 0.00 | 0.01 | 0.00 | 62 | 1017.4 |
| 20260503223045 | 49 | 17 | 10.0 | 17.0 | 0.00 | 0.01 | 0.00 | 61 | 1017.4 |
| 20260503222530 | 50 | 60 | 8.0 | 17.0 | 0.00 | 0.01 | 0.00 | 62 | 1017.4 |
| 20260503222032 | 50 | 343 | 6.0 | 15.0 | 0.00 | 0.01 | 0.00 | 62 | 1017.4 |
| 20260503221541 | 50 | 66 | 7.0 | 20.0 | 0.00 | 0.01 | 0.00 | 62 | 1017.4 |
| 20260503221032 | 50 | 32 | 7.0 | 20.0 | 0.00 | 0.01 | 0.00 | 61 | 1017.3 |
| 20260503220531 | 50 | 24 | 8.0 | 20.0 | 0.00 | 0.01 | 0.00 | 61 | 1017.3 |
| 20260503220045 | 50 | 11 | 5.0 | 15.0 | 0.00 | 0.01 | 0.00 | 62 | 1017.3 |
| 20260503215532 | 50 | 5 | 6.0 | 17.0 | 0.00 | 0.01 | 0.00 | 62 | 1017.4 |
| 20260503215033 | 50 | 338 | 7.0 | 17.0 | 0.00 | 0.01 | 0.00 | 60 | 1017.4 |
| 20260503214544 | 50 | 32 | 10.0 | 20.0 | 0.00 | 0.01 | 0.00 | 61 | 1017.4 |
| 20260503214032 | 50 | 13 | 10.0 | 20.0 | 0.00 | 0.01 | 0.00 | 62 | 1017.4 |
| 20260503213532 | 50 | 52 | 6.0 | 17.0 | 0.00 | 0.01 | 0.00 | 62 | 1017.3 |
| 20260503213043 | 50 | 331 | 8.0 | 17.0 | 0.00 | 0.01 | 0.00 | 62 | 1017.4 |
| 20260503212532 | 50 | 38 | 5.0 | 18.0 | 0.00 | 0.01 | 0.00 | 62 | 1017.3 |
| 20260503212033 | 50 | 34 | 7.0 | 18.0 | 0.00 | 0.01 | 0.00 | 61 | 1017.3 |
| 20260503211544 | 50 | 18 | 8.0 | 15.0 | 0.00 | 0.01 | 0.00 | 61 | 1017.4 |
| 20260503211030 | 50 | 41 | 6.0 | 15.0 | 0.00 | 0.01 | 0.00 | 61 | 1017.2 |
| 20260503210530 | 50 | 352 | 7.0 | 15.0 | 0.00 | 0.01 | 0.00 | 60 | 1017.1 |
| 20260503210043 | 50 | 23 | 5.0 | 16.0 | 0.00 | 0.01 | 0.00 | 60 | 1017.1 |
| 20260503205534 | 50 | 13 | 6.0 | 16.0 | 0.00 | 0.01 | 0.01 | 59 | 1017.2 |
| 20260503205031 | 50 | 13 | 7.0 | 17.0 | 0.00 | 0.01 | 0.01 | 60 | 1017.1 |
| 20260503204548 | 50 | 25 | 5.0 | 17.0 | 0.00 | 0.01 | 0.01 | 58 | 1017.1 |
| 20260503204031 | 50 | 18 | 8.0 | 17.0 | 0.00 | 0.01 | 0.01 | 58 | 1017.1 |
| 20260503203534 | 50 | 25 | 6.0 | 15.0 | 0.00 | 0.01 | 0.01 | 60 | 1017.1 |
| 20260503203049 | 50 | 22 | 6.0 | 15.0 | 0.00 | 0.01 | 0.01 | 60 | 1017.0 |
| 20260503202530 | 50 | 49 | 7.0 | 15.0 | 0.00 | 0.01 | 0.01 | 59 | 1017.0 |
| 20260503202034 | 51 | 338 | 6.0 | 14.0 | 0.00 | 0.01 | 0.01 | 59 | 1017.0 |
| 20260503201551 | 51 | 5 | 6.0 | 16.0 | 0.00 | 0.01 | 0.01 | 60 | 1017.0 |
| 20260503201029 | 51 | 5 | 8.0 | 17.0 | 0.00 | 0.01 | 0.01 | 60 | 1017.1 |
| 20260503200532 | 51 | 46 | 7.0 | 17.0 | 0.00 | 0.01 | 0.01 | 60 | 1017.0 |
| 20260503200046 | 51 | 33 | 8.0 | 19.0 | 0.00 | 0.01 | 0.01 | 59 | 1016.8 |
| 20260503195532 | 51 | 73 | 7.0 | 19.0 | 0.00 | 0.01 | 0.01 | 61 | 1016.9 |
| 20260503195030 | 51 | 48 | 8.0 | 17.0 | 0.00 | 0.01 | 0.01 | 60 | 1017.0 |
| 20260503194547 | 51 | 44 | 7.0 | 15.0 | 0.00 | 0.01 | 0.01 | 60 | 1017.0 |
| 20260503194032 | 51 | 360 | 4.0 | 17.0 | 0.00 | 0.01 | 0.01 | 61 | 1017.0 |
| 20260503193534 | 51 | 60 | 6.0 | 17.0 | 0.00 | 0.01 | 0.01 | 59 | 1017.0 |
| 20260503193043 | 51 | 26 | 7.0 | 17.0 | 0.00 | 0.01 | 0.01 | 60 | 1016.9 |
| 20260503192530 | 51 | 32 | 6.0 | 17.0 | 0.00 | 0.01 | 0.01 | 61 | 1016.8 |
| 20260503192032 | 51 | 352 | 10.0 | 17.0 | 0.00 | 0.01 | 0.01 | 59 | 1016.8 |
| 20260503191541 | 51 | 67 | 8.0 | 17.0 | 0.00 | 0.01 | 0.01 | 59 | 1016.7 |
| 20260503191030 | 52 | 41 | 7.0 | 20.0 | 0.00 | 0.01 | 0.01 | 61 | 1016.7 |
| 20260503190531 | 52 | 19 | 9.0 | 20.0 | 0.00 | 0.01 | 0.01 | 61 | 1016.6 |
| 20260503190042 | 52 | 59 | 11.0 | 25.0 | 0.00 | 0.01 | 0.01 | 60 | 1016.5 |
| 20260503185530 | 52 | 53 | 11.0 | 25.0 | 0.00 | 0.01 | 0.01 | 60 | 1016.5 |
| 20260503185031 | 52 | 67 | 10.0 | 22.0 | 0.00 | 0.01 | 0.01 | 61 | 1016.3 |
| 20260503184557 | 52 | 26 | 12.0 | 22.0 | 0.00 | 0.01 | 0.01 | 61 | 1016.2 |
| 20260503184034 | 52 | 60 | 12.0 | 22.0 | 0.00 | 0.01 | 0.01 | 61 | 1016.2 |
| 20260503183531 | 52 | 14 | 12.0 | 21.0 | 0.00 | 0.01 | 0.01 | 61 | 1016.1 |
| 20260503183050 | 52 | 32 | 12.0 | 21.0 | 0.00 | 0.01 | 0.01 | 60 | 1016.2 |
| 20260503182533 | 52 | 34 | 10.0 | 20.0 | 0.00 | 0.01 | 0.01 | 61 | 1016.0 |
| 20260503182032 | 52 | 55 | 12.0 | 20.0 | 0.00 | 0.01 | 0.01 | 61 | 1016.0 |
| 20260503181551 | 52 | 13 | 12.0 | 20.0 | 0.00 | 0.01 | 0.01 | 61 | 1016.0 |
| 20260503181034 | 52 | 64 | 10.0 | 18.0 | 0.00 | 0.01 | 0.01 | 62 | 1016.1 |
| 20260503180535 | 52 | 37 | 10.0 | 21.0 | 0.00 | 0.01 | 0.01 | 64 | 1015.9 |
| 20260503180043 | 52 | 17 | 11.0 | 23.0 | 0.00 | 0.01 | 0.01 | 64 | 1015.8 |
| 20260503175532 | 52 | 33 | 10.0 | 23.0 | 0.00 | 0.01 | 0.01 | 64 | 1015.7 |
| 20260503175035 | 53 | 49 | 13.0 | 23.0 | 0.00 | 0.01 | 0.01 | 64 | 1015.6 |
| 20260503174542 | 53 | 44 | 12.0 | 25.0 | 0.00 | 0.01 | 0.01 | 66 | 1015.5 |
| 20260503174032 | 53 | 76 | 13.0 | 25.0 | 0.00 | 0.01 | 0.01 | 64 | 1015.4 |
| 20260503173530 | 53 | 51 | 11.0 | 20.0 | 0.00 | 0.01 | 0.01 | 67 | 1015.4 |
| 20260503173041 | 53 | 36 | 10.0 | 21.0 | 0.00 | 0.01 | 0.01 | 67 | 1015.3 |
| 20260503172532 | 53 | 59 | 11.0 | 21.0 | 0.00 | 0.01 | 0.01 | 66 | 1015.2 |
| 20260503172032 | 53 | 20 | 10.0 | 22.0 | 0.00 | 0.01 | 0.01 | 67 | 1015.3 |
| 20260503171607 | 53 | 49 | 11.0 | 22.0 | 0.00 | 0.01 | 0.01 | 67 | 1015.2 |
| 20260503171032 | 53 | 41 | 8.0 | 20.0 | 0.00 | 0.01 | 0.01 | 67 | 1015.2 |
| 20260503170531 | 53 | 102 | 13.0 | 20.0 | 0.00 | 0.01 | 0.01 | 67 | 1015.1 |
| 20260503150529 | 52 | 36 | 12.0 | 24.0 | 0.00 | 0.01 | 0.01 | 75 | 1014.1 |
| 20260503131034 | 51 | 9 | 11.0 | 24.0 | 0.00 | 0.01 | 0.01 | 75 | 1014.3 |
| 20260503130530 | 51 | 45 | 7.0 | 17.0 | 0.00 | 0.01 | 0.01 | 74 | 1014.3 |
| 20260503081545 | 49 | 29 | 6.0 | 15.0 | 0.00 | 0.01 | 0.01 | 71 | 1014.8 |
| 20260503081030 | 49 | 12 | 6.0 | 14.0 | 0.00 | 0.01 | 0.01 | 71 | 1014.9 |
| 20260503080531 | 49 | 44 | 4.0 | 14.0 | 0.00 | 0.01 | 0.01 | 71 | 1014.8 |
| 20260503072533 | 48 | 59 | 7.0 | 16.0 | 0.00 | 0.01 | 0.01 | 72 | 1015.0 |
| 20260503072032 | 48 | 360 | 7.0 | 20.0 | 0.00 | 0.01 | 0.01 | 73 | 1014.9 |
| 20260503071604 | 48 | 74 | 7.0 | 20.0 | 0.00 | 0.01 | 0.01 | 72 | 1014.9 |
| 20260503071031 | 48 | 29 | 8.0 | 14.0 | 0.00 | 0.01 | 0.01 | 73 | 1014.9 |
| 20260503070529 | 48 | 26 | 7.0 | 20.0 | 0.00 | 0.01 | 0.01 | 73 | 1014.9 |